Location: Quesnel
(52.9830°N, 122.4830°W)
Time: 23:28:49
(UTC-08:00)

ISS - All Passes

Search period start: 05 March 2015 00:00
Search period end: 15 March 2015 01:00
Orbit: 396 x 408 km, 51.6° (Epoch: 05 March)

Date Brightness Start Highest point End Pass type
(mag) Time Alt. Az. Time Alt. Az. Time Alt. Az.
05 Mar - 09:07:28 10° SW 09:10:20 30° SSE 09:13:14 10° E daylight
05 Mar - 10:43:17 10° WSW 10:46:31 67° S 10:49:44 10° E daylight
05 Mar - 12:19:38 10° W 12:22:50 56° SSW 12:26:01 10° ESE daylight
05 Mar - 13:56:21 10° W 13:58:51 20° SSW 14:01:20 10° SSE daylight
06 Mar - 08:15:07 10° SSW 08:17:38 21° SSE 08:20:09 10° E daylight
06 Mar - 09:50:29 10° WSW 09:53:39 57° SSE 09:56:51 10° E daylight
06 Mar - 11:26:46 10° W 11:29:59 66° S 11:33:12 10° ESE daylight
06 Mar - 13:03:15 10° W 13:06:08 29° SSW 13:08:59 10° SE daylight
07 Mar - 07:23:08 10° S 07:24:55 14° SE 07:26:46 10° ESE daylight
07 Mar - 08:57:43 10° SW 09:00:49 45° SSE 09:03:55 10° E daylight
07 Mar - 10:33:52 10° W 10:37:05 71° S 10:40:19 10° E daylight
07 Mar - 12:10:16 10° W 12:13:20 40° SSW 12:16:23 10° SE daylight
07 Mar - 13:47:46 10° WSW 13:49:10 12° SW 13:50:29 10° SSW daylight
08 Mar - 09:05:02 10° SW 09:07:58 33° SSE 09:10:56 10° E daylight
08 Mar - 10:40:56 10° WSW 10:44:09 68° S 10:47:23 10° E daylight
08 Mar - 12:17:18 10° W 12:20:27 53° SSW 12:23:38 10° ESE daylight
08 Mar - 13:54:06 10° W 13:56:27 18° SSW 13:58:45 10° SSE daylight
09 Mar - 08:12:31 10° SSW 08:15:09 23° SSE 08:17:49 10° E daylight
09 Mar - 09:48:02 10° WSW 09:51:13 60° S 09:54:25 10° E daylight
09 Mar - 11:24:19 10° W 11:27:32 64° S 11:30:45 10° ESE daylight
09 Mar - 13:00:52 10° W 13:03:39 26° SSW 13:06:25 10° SSE daylight
10 Mar - 07:20:18 10° S 07:22:21 16° SE 07:24:26 10° ESE daylight
10 Mar - 08:55:09 10° WSW 08:58:17 48° SSE 09:01:25 10° E daylight
10 Mar - 10:31:20 10° W 10:34:33 70° S 10:37:47 10° E daylight
10 Mar - 12:07:45 10° W 12:10:47 37° SSW 12:13:48 10° SE daylight
10 Mar - 13:45:46 10° SW 13:46:34 11° SW 13:47:16 10° SSW daylight
11 Mar - 06:29:11 10° SSE 06:29:35 10° SE 06:30:03 10° SE visible
11 Mar - 08:02:20 10° SW 08:05:20 36° SSE 08:08:22 10° E daylight
11 Mar - 09:38:19 10° W 09:41:33 70° S 09:44:47 10° E daylight
11 Mar - 11:14:41 10° W 11:17:50 49° SSW 11:20:59 10° ESE daylight
11 Mar - 12:51:37 10° WSW 12:53:46 16° SW 12:55:53 10° S daylight
12 Mar - 07:09:41 10° SSW 07:12:25 26° SSE 07:15:11 10° E daylight
12 Mar - 08:45:19 10° WSW 08:48:31 63° S 08:51:44 10° E daylight
12 Mar - 10:21:38 10° W 10:24:50 61° S 10:28:02 10° ESE daylight
12 Mar - 11:58:13 10° W 12:00:54 24° SSW 12:03:35 10° SSE daylight
13 Mar - 06:17:17 10° S 06:19:31 18° SE 06:21:49 10° E visible
13 Mar - 07:52:20 10° WSW 07:55:29 51° SSE 07:58:39 10° E daylight
13 Mar - 09:28:33 10° W 09:31:46 69° S 09:35:00 10° E daylight
13 Mar - 11:04:59 10° W 11:07:58 34° SSW 11:10:56 10° SE daylight
14 Mar - 05:25:30 10° SSE 05:26:39 12° SE 05:27:53 10° ESE visible
14 Mar - 06:59:24 10° SW 07:02:28 39° SSE 07:05:30 10° E daylight
14 Mar - 08:35:27 10° W 08:38:41 71° S 08:41:55 10° E daylight
14 Mar - 10:11:49 10° W 10:14:57 46° SSW 10:18:04 10° SE daylight
14 Mar - 11:48:55 10° WSW 11:50:50 15° SW 11:52:43 10° S daylight
